Location: Chavenne
(46.6022°N, 3.2951°E)
Time: 11:13:15
(UTC+00:00)

SL-16 R/B - Pass Details

Date: 09 April 2020
Orbit: 842 x 846 km, 71.0° (Epoch: 05 June)

Event Time Altitude Azimuth Distance (km) Brightness Sun altitude
Rises 21:28:50 0° 339° (NNW) 3,414 6.5 -27.2°
Reaches altitude 10° 21:31:49 10° 354° (N) 2,476 5.3 -27.5°
Maximum altitude 21:36:17 23° 46° (NE) 1,723 3.8 -28.0°
Enters shadow 21:36:51 23° 55° (NE) 1,737 3.8 -28.1°
